Weather History for KLLQ - April, 2014

Change the Weather History Date:

Friday, April 4, 2014

  Actual Average Record
Temperature  
Mean Temperature 60 °F -  
Max Temperature 73 °F 73 °F 87 °F (1958)
Min Temperature 46 °F 48 °F 23 °F (1987)
Degree Days  
Heating Degree Days 6    
Growing Degree Days 10 (Base 50)    
Moisture  
Dew Point 51 °F    
Average Humidity 71    
Maximum Humidity 94    
Minimum Humidity 27    
Precipitation  
Precipitation 0.44 in - - ()
Sea Level Pressure  
Sea Level Pressure 29.90 in    
Wind  
Wind Speed 10 mph (West)    
Max Wind Speed 31 mph    
Max Gust Speed 48 mph    
Visibility 9 miles    
Events Rain , Thunderstorm    
Averages and records for this station are not official NWS values.
T = Trace of Precipitation, MM = Missing Value Source: NWS Daily Summary

Daily Weather History Graph

Daily Weather History Graph

Search for Another Location

Airport or City:

Trip Planner

Search our weather history database for the weather conditions in past years. The results will help you decide how hot, cold, wet, or windy it might be!

Date:

Astronomy

Apr. 04, 2014 Rise Set
Actual Time 6:50 AM CDT 7:29 PM CDT
Civil Twilight 6:25 AM CDT 7:55 PM CDT
Nautical Twilight 5:55 AM CDT 8:24 PM CDT
Astronomical Twilight 5:25 AM CDT 8:55 PM CDT
Moon 10:17 AM CDT (4/4) No Moon Set
Length of Visible Light 13h 29m
Length of Day
12h 39m
Waxing Crescent, 25% of the Moon is Illuminated
Apr 4
Waxing Crescent
Apr 7
First Quarter
Apr 15
Full
Apr 22
Last Quarter
Apr 29
New

Hourly Weather History & Observations

Time (CDT) Temp. Dew Point Humidity Pressure Visibility Wind Dir Wind Speed Gust Speed Precip Events Conditions
12:11 AM 73.4 °F 68.0 °F 83% 29.73 in 10.0 mi South 12.7 mph 18.4 mph N/A   Scattered Clouds
12:43 AM 71.6 °F 68.0 °F 88% 29.73 in 8.0 mi South 9.2 mph 17.3 mph 0.00 in Rain , Thunderstorm Light Rain
12:53 AM 72.0 °F 68.0 °F 87% 29.72 in 10.0 mi South 9.2 mph 17.3 mph 0.01 in Rain , Thunderstorm Light Rain
1:04 AM 71.6 °F 68.0 °F 88% 29.75 in 10.0 mi South 11.5 mph 19.6 mph 0.00 in   Overcast
1:17 AM 71.6 °F 68.0 °F 88% 29.72 in 10.0 mi South 12.7 mph 20.7 mph 0.00 in Thunderstorm Overcast
1:26 AM 66.2 °F 60.8 °F 83% 29.79 in 1.8 mi SW 31.1 mph 48.3 mph 0.13 in Rain , Thunderstorm Heavy Thunderstorms and Rain
1:35 AM 64.4 °F 60.8 °F 88% 29.79 in 1.8 mi WSW 13.8 mph 40.3 mph 0.26 in Rain , Thunderstorm Heavy Thunderstorms and Rain
1:41 AM 64.4 °F 60.8 °F 88% 29.78 in 3.0 mi SW 13.8 mph 25.3 mph 0.30 in Rain , Thunderstorm Heavy Thunderstorms and Rain
1:53 AM 63.0 °F 61.0 °F 93% 29.79 in 5.0 mi SW 6.9 mph - 0.33 in Rain , Thunderstorm Thunderstorms and Rain
2:53 AM 62.1 °F 60.1 °F 93% 29.77 in 10.0 mi South 5.8 mph - 0.07 in Rain , Thunderstorm Thunderstorms and Rain
3:43 AM 62.6 °F 59.0 °F 88% 29.79 in 10.0 mi WSW 9.2 mph - 0.02 in   Overcast
3:53 AM 62.1 °F 59.0 °F 90% 29.79 in 10.0 mi SW 5.8 mph - 0.03 in Rain , Thunderstorm Light Thunderstorms and Rain
4:10 AM 62.6 °F 59.0 °F 88% 29.77 in 10.0 mi WSW 3.5 mph - 0.00 in   Mostly Cloudy
4:53 AM 61.0 °F 59.0 °F 93% 29.78 in 10.0 mi West 5.8 mph - 0.00 in   Partly Cloudy
5:02 AM 60.8 °F 59.0 °F 94% 29.78 in 10.0 mi WNW 4.6 mph - N/A   Partly Cloudy
5:42 AM 60.8 °F 59.0 °F 94% 29.84 in 10.0 mi West 5.8 mph - N/A   Mostly Cloudy
5:53 AM 61.0 °F 59.0 °F 93% 29.85 in 10.0 mi West 4.6 mph - N/A   Overcast
6:53 AM 59.0 °F 55.0 °F 87% 29.89 in 10.0 mi WNW 6.9 mph - N/A   Partly Cloudy
7:53 AM 55.0 °F 46.0 °F 72% 29.94 in 10.0 mi WNW 12.7 mph 19.6 mph N/A   Clear
8:53 AM 54.0 °F 42.1 °F 64% 29.99 in 10.0 mi NW 9.2 mph 18.4 mph N/A   Clear
9:53 AM 55.9 °F 43.0 °F 62% 30.01 in 10.0 mi NW 9.2 mph - N/A   Clear
10:53 AM 57.9 °F 42.1 °F 56% 30.02 in 10.0 mi NW 11.5 mph 19.6 mph N/A   Clear
11:53 AM 61.0 °F 42.1 °F 50% 30.03 in 10.0 mi NW 10.4 mph 17.3 mph N/A   Clear
12:53 PM 63.0 °F 41.0 °F 45% 30.02 in 10.0 mi WNW 13.8 mph 18.4 mph N/A   Clear
1:53 PM 64.0 °F 39.0 °F 40% 30.02 in 10.0 mi WNW 9.2 mph 23.0 mph N/A   Clear
2:53 PM 66.0 °F 37.0 °F 34% 30.02 in 10.0 mi NW 12.7 mph 18.4 mph N/A   Clear
3:53 PM 66.9 °F 34.0 °F 30% 30.01 in 10.0 mi NNW 10.4 mph - N/A   Clear
4:53 PM 66.9 °F 35.1 °F 31% 30.01 in 10.0 mi NW 8.1 mph - N/A   Clear
5:53 PM 66.9 °F 32.0 °F 27% 30.02 in 10.0 mi NNW 5.8 mph - N/A   Clear
6:53 PM 64.0 °F 34.0 °F 33% 30.03 in 10.0 mi NNW 3.5 mph - N/A   Clear
7:53 PM 57.0 °F 41.0 °F 55% 30.04 in 10.0 mi NNE 3.5 mph - N/A   Clear
8:53 PM 54.0 °F 39.9 °F 59% 30.07 in 10.0 mi Calm Calm - N/A   Clear
9:53 PM 50.0 °F 42.1 °F 74% 30.09 in 10.0 mi Calm Calm - 0.00 in   Clear
10:53 PM 46.9 °F 41.0 °F 80% 30.10 in 10.0 mi Calm Calm - N/A   Clear
11:53 PM 48.9 °F 41.0 °F 74% 30.12 in 10.0 mi NNE 3.5 mph - N/A   Clear